Location: Klein M�hlingen
(51.9472°N, 11.7453°E)
Time: 05:08:37
(UTC+00:00)

Nauka - Pass Details

Date: 02 October 2021
Orbit: 417 x 423 km, 51.6° (Epoch: 26 October)

Event Time Altitude Azimuth Distance (km) Brightness Sun altitude
Rises 17:29:16 0° 282° (WNW) 2,366 ? -7.2°
Reaches altitude 10° 17:31:24 10° 277° (W) 1,501 ? -7.5°
Maximum altitude 17:34:40 50° 201° (SSW) 545 ? -8.0°
Drops below altitude 10° 17:37:56 10° 125° (SE) 1,499 ? -8.5°
Enters shadow 17:38:09 - 124° (SE) 1,586 ? -8.6°
